星链-2032 (STARLINK-2032 )

导读 | 豆包AI

STARLINK-2032是美国SpaceX星链(Starlink)卫星互联网项目的卫星,于2021年2月16日发射升空。它属于星链低轨互联网星座的组成部分,承担为全球提供高速宽带互联网接入服务的任务,运行于近地轨道,是星链星座组网进程中发射的批量卫星之一,助力该星座完成全球覆盖布局。

基本信息
目录编号:
47649
目录名称:
STARLINK-2032
国际标识:
2021-012AF
轨道中心:
EARTH
卫星名称:
星链-2032
卫星全名:
星链-2032 (STARLINK-2032 )
卫星状态:
在轨 (已飞行1924 天)
发射日期:
2021-02-16 UTC
国别 :
美国 (US)
星等 :
--
轨道信息
数据来源 国际轨道数据
星历时间: 2026-05-24T07:28:32+0800
1天前
查看轨道信息
半长轴: 6705.27km
偏心率: 0.0002704
轨道倾角: 53.037°
近地点辐角 322.018°
升交点赤经 359.923°
平近点角 38.065°
近地点: 325.319km
远地点: 328.947km
周期: 91.072分钟
每日圈数: 15.811694
详细信息
固有亮度:
5
最大亮度:
2.5
卫星平台:
Starlink V1.0
覆盖范围:
全球
运营商:
太空探索技术公司
运营商所在国:
美国
制造商(研发单位):
太空探索技术公司
制造商所在国:
美国
使用方式:
暂无
卫星简介
星链(Starlink)计划是由太空探索技术公司(SpaceX)提出的一个巨型低轨卫星互联网星座项目,计划在2019年至2024年间在太空搭建由约1.2万颗卫星组成的“星链”网络,其中1584颗将部署在地球上空550千米处的近地轨道,并从2020年开始工作。该卫星仍在工作。
2D轨道图
3D轨道图
轨道高度分析图
轨道倾角分析图
轨道综合分析图
查看轨道综合分析图